Terminal Aerodrome Forecast
Issued by NWS

Home | Current Version | Previous Version | Text Only | Print | Product List | Glossary On
Versions: 1 2 3 4 5 6 7 8 9 10 11 12 13 14 15 16 17 18 19 20
000
FTUS44 KLZK 010500
TAFLLQ
TAF
KLLQ 010520Z 0106/0206 04004KT P6SM VCSH OVC100
     FM011200 05003KT 5SM -RA BR SCT007 OVC020
     FM011500 07003KT 5SM -RA BR OVC007
     FM020000 04005KT 3SM BR OVC004=

USA.gov is the U.S. government's official web portal to all federal, state and local government web resources and services.